TimeMST,TemperatureF,Dew PointF,Humidity,Sea Level PressureIn,VisibilityMPH,Wind Direction,Wind SpeedMPH,Gust SpeedMPH,PrecipitationIn,Events,Conditions,WindDirDegrees,DateUTC
12:53 AM,37.0,28.9,73,30.04,10.0,Calm,Calm,-,N/A,,Overcast,0,2012-11-25 07:53:00
1:53 AM,36.0,28.9,76,30.03,10.0,Calm,Calm,-,N/A,,Overcast,0,2012-11-25 08:53:00
2:53 AM,36.0,28.9,76,30.03,9.0,WSW,4.6,-,0.00,Snow,Light Snow,250,2012-11-25 09:53:00
3:53 AM,36.0,28.9,76,30.03,10.0,NNW,4.6,-,0.00,,Overcast,330,2012-11-25 10:53:00
4:53 AM,36.0,24.1,62,30.04,10.0,WSW,4.6,-,0.00,Snow,Light Snow,250,2012-11-25 11:53:00
5:53 AM,34.0,28.0,79,30.06,10.0,West,3.5,-,0.00,,Overcast,270,2012-11-25 12:53:00
6:53 AM,34.0,27.0,75,30.08,10.0,WSW,5.8,-,N/A,,Overcast,250,2012-11-25 13:53:00
7:53 AM,34.0,25.0,70,30.09,10.0,WSW,3.5,-,N/A,,Overcast,240,2012-11-25 14:53:00
8:53 AM,35.1,21.9,59,30.11,10.0,West,4.6,-,N/A,,Overcast,280,2012-11-25 15:53:00
9:53 AM,36.0,19.0,50,30.13,10.0,WNW,8.1,-,N/A,,Overcast,290,2012-11-25 16:53:00
10:53 AM,36.0,17.1,46,30.14,10.0,West,9.2,-,N/A,,Overcast,270,2012-11-25 17:53:00
11:53 AM,39.0,12.9,34,30.13,10.0,West,17.3,21.9,N/A,,Clear,270,2012-11-25 18:53:00
12:53 PM,36.0,15.1,43,30.13,10.0,WNW,23.0,27.6,N/A,,Clear,290,2012-11-25 19:53:00
1:53 PM,37.0,15.1,41,30.14,10.0,WNW,17.3,26.5,N/A,,Clear,290,2012-11-25 20:53:00
2:53 PM,37.0,12.9,37,30.16,10.0,West,13.8,-,N/A,,Scattered Clouds,270,2012-11-25 21:53:00
3:53 PM,36.0,14.0,41,30.19,10.0,West,11.5,21.9,N/A,,Overcast,280,2012-11-25 22:53:00
4:53 PM,34.0,14.0,44,30.23,10.0,WNW,9.2,-,N/A,,Overcast,290,2012-11-25 23:53:00
5:53 PM,32.0,16.0,52,30.26,10.0,WNW,12.7,-,N/A,,Mostly Cloudy,300,2012-11-26 00:53:00
6:53 PM,30.9,18.0,59,30.30,10.0,NW,4.6,-,N/A,,Overcast,310,2012-11-26 01:53:00
7:53 PM,28.9,17.1,61,30.32,10.0,West,5.8,-,N/A,,Scattered Clouds,280,2012-11-26 02:53:00
8:53 PM,28.9,17.1,61,30.34,10.0,West,4.6,-,N/A,,Scattered Clouds,280,2012-11-26 03:53:00
9:53 PM,30.0,17.1,59,30.35,10.0,Calm,Calm,-,N/A,,Overcast,0,2012-11-26 04:53:00
10:53 PM,28.9,16.0,58,30.36,10.0,WSW,4.6,-,N/A,,Clear,240,2012-11-26 05:53:00
11:53 PM,26.1,16.0,66,30.37,10.0,NE,4.6,-,N/A,,Clear,40,2012-11-26 06:53:00